Find Starlink 37764

NORAD ID: 100414 Int'l Des: 2026-192 Owner: SPXS Country: US Constellation: starlink operational

現在のビュー

3D地球を読み込み中...

About Starlink 37764

Starlink 37764 (NORAD 100414) is a starlink constellation satellite launched Aug 21, 2026 by SPXS of US. with a mass of 575.00 kg.

次回通過

Passes for default location (London). Set your location on the main map for personalized predictions.

高度履歴

Loading altitude history...

軌道要素

1 A0414U 26192L 26248.27842817 .00174298 00000-0 91027-3 0 9993
2 A0414 53.1589 20.7300 0000856 79.1631 280.9488 15.79856179 3527
Epoch: Sep 5, 2026 • Age: 8 hours

現在のステータス

高度 335.9 km
遠地点 / 近地点 N/A
速度 7.71 km/s
衛星直下点 50.17°N, 69.79°W
打ち上げ日 Aug 21, 2026
運用期間 14 days
タイプ internet

技術仕様

分類 Payload
質量 575.00 kg
乾燥質量 530.00 kg
総質量 575.00 kg
長さ 0.30 m
直径 4.10 m
スパン 29.00 m
形状 Box + pan
製造者 SPXS
バスタイプ Starlink V2MO
フェーズステータス In Orbit
所有者/国 SPXS/US

Most Searched